Tracking 19477 objects as of 16-Jan-2019
HD Live streaming from Space Station
objects crossing your sky now

USA 8

Track USA 8 now!
USA 8 is classified as:


NORAD ID: 15543
Int'l Code: 1985-010B
Perigee: 35,361.8 km
Apogee: 36,486.0 km
Inclination: 17.1 °
Period: 1,442.8 minutes
Semi major axis: 42294 km
RCS: Unknown
Launch date: January 24, 1985
Source: United States (US)
Launch site: AIR FORCE EASTERN TEST RANGE (AFETR)
aabbcc
Your satellite tracking list
Your tracking list is empty




NASA's NSSDC Master Catalog

Two Line Element Set (TLE):
1 15543U 85010B   18317.49554522 0.00000000  00000-0  00000-0 0    01
2 15543  17.1271 342.7173 0132906 335.0685  24.3191  0.99809248    06
Source of the keplerian elements: McCants